Date,TemperatureHighF,TemperatureAvgF,TemperatureLowF,DewpointHighF,DewpointAvgF,DewpointLowF,HumidityHigh,HumidityAvg,HumidityLow,PressureMaxIn,PressureMinIn,WindSpeedMaxMPH,WindSpeedAvgMPH,GustSpeedMaxMPH,PrecipitationSumIn
2013-5-1,90.0,71.1,59.7,68.4,61.1,54.9,99,76,32,30.25,30.06,9,2,9,0.00
2013-5-2,73.4,60.3,46.2,61.5,50.2,45.4,99,73,40,30.48,30.22,8,3,8,0.00
2013-5-3,77.9,55.6,45.5,56.4,49.5,44.7,99,84,43,30.47,30.24,14,2,14,0.00
2013-5-4,86.4,58.9,43.2,59.8,50.8,42.6,99,78,34,30.37,30.15,11,2,11,0.00
2013-5-5,74.1,58.6,47.1,52.2,49.6,46.9,99,74,39,30.40,30.29,8,2,8,0.00
2013-5-6,54.0,43.8,42.6,48.6,43.0,42.3,99,97,82,30.40,30.37,2,0,2,0.00
2013-5-7,65.8,54.5,51.6,59.5,53.4,51.3,99,96,80,30.51,30.43,3,1,3,0.02
2013-5-8,75.4,65.7,52.5,60.4,57.0,52.0,98,76,54,30.59,30.48,4,3,4,0.01
2013-5-10,75.2,56.1,51.1,56.9,52.7,50.8,99,90,53,30.56,30.50,3,0,3,0.01
2013-5-11,52.9,52.4,51.8,52.3,51.8,51.3,98,98,98,30.55,30.53,2,0,2,0.00
2013-5-12,64.4,63.8,51.8,61.4,61.0,51.3,99,91,90,30.47,30.33,3,2,3,0.01
2013-5-13,64.4,64.4,64.4,61.4,61.4,61.4,90,90,90,30.30,30.25,2,2,2,0.01
2013-5-14,48.6,48.6,48.6,46.9,46.9,46.9,94,94,94,30.05,30.05,0,0,0,0.00
2013-5-15,73.6,61.7,41.0,52.3,47.3,40.7,99,64,36,30.10,29.98,8,3,8,0.00
2013-5-16,73.9,61.8,46.0,58.4,48.0,45.2,97,63,39,30.02,29.92,8,3,8,0.00
2013-5-17,70.0,54.5,37.9,51.4,41.2,35.7,99,67,29,30.11,29.99,15,3,22,0.00
2013-5-18,73.6,54.2,32.7,49.2,39.9,32.5,99,66,27,30.12,30.02,8,2,10,0.00
2013-5-19,71.8,58.0,39.7,48.0,40.5,37.3,99,57,30,30.19,30.10,10,2,14,0.00
2013-5-20,73.8,49.6,30.4,51.9,41.8,30.1,99,79,36,30.23,30.12,5,1,7,0.00
2013-5-21,40.6,39.6,38.7,40.4,39.3,38.4,99,99,99,30.19,30.15,0,0,1,0.00
2013-5-22,60.1,50.1,41.0,54.2,47.9,40.7,99,93,74,30.13,29.93,2,0,2,0.21
2013-5-23,63.1,55.0,50.7,58.6,54.0,50.4,99,97,82,30.14,29.94,5,2,5,0.79
2013-5-24,70.7,60.2,53.4,56.8,54.1,52.3,97,82,59,30.24,30.14,8,4,10,0.07
2013-5-29,77.2,57.1,50.7,61.4,54.0,50.4,99,91,53,30.60,30.48,3,1,3,0.01
2013-5-30,80.8,57.4,47.8,61.3,52.6,47.6,99,87,48,30.55,30.42,4,1,4,0.00
2013-5-31,82.6,57.9,46.4,59.9,52.1,46.1,99,85,46,30.51,30.36,4,1,4,0.01